Regional Weather Roundup
Issued by NWS Charleston, SC

Current Version | Previous Version | Graphics & Text | Print | Product List | Glossary Off
Versions: 1 2 3 4 5 6 7 8 9 10 11 12 13 14 15 16 17 18 19 20 21 22 23 24 25 26 27 28 29 30 31 32 33 34 35 36 37 38 39 40 41 42 43 44 45 46 47 48 49 50

000
ASUS42 KCHS 301425
RWRCHS

REGIONAL WEATHER ROUNDUP
NATIONAL WEATHER SERVICE CHARLESTON SC
1000 AM EDT TUE SEP 30 2014

NOTE: "FAIR" INDICATES FEW OR NO CLOUDS BELOW 12,000 FEET WITH NO
SIGNIFICANT WEATHER AND/OR OBSTRUCTIONS TO VISIBILITY.

NOT ALL STATIONS ARE QUALITY CONTROLLED BY THE NATIONAL
WEATHER SERVICE. USE DATA WITH CAUTION...ESPECIALLY
DEWPOINT OBSERVATIONS.

SCZ027-030-031-034>040-042>050-301500-
...SOUTH CAROLINA...

CITY           SKY/WX    TMP DP  RH WIND       PRES   REMARKS
N CHARLESTON   PTSUNNY   70  62  76 N9        29.91S
WATERFRONT PRK NOT AVBL
FORT JOHNSON   NOT AVBL
MOUNT PLEASANT FAIR      72  64  78 N8        29.90S
JOHNS ISLAND   CLOUDY    70  70 100 N10       29.91S
PINOPOLIS        N/A     70  63  78 NE8       29.86R
MONCKS CORNER  FAIR      70  64  83 N6        29.92S
SUMMERVILLE    PTSUNNY   68  64  88 N7        29.93S
BEAUFORT MCAS  PTSUNNY   69  63  81 N10       29.91S
BEAUFORT ARPT  CLOUDY    70  64  83 N8        29.91R
HILTON HEAD IS NOT AVBL
GEORGETOWN     NOT AVBL
WALTERBORO     SUNNY     72  63  73 N7        29.93S
ORANGEBURG     SUNNY     70  59  68 NE7       29.94S
BARNWELL       FAIR      72  61  68 NE8       29.95R
AIKEN          FAIR      72  63  73 N6        29.99S
MANNING        FAIR      70  64  83 N7        29.94R
KINGSTREE      NOT AVBL
COLUMBIA       SUNNY     72  59  63 N6        29.94F
SUMTER         SUNNY     70  59  67 N5        29.93R
FLORENCE       SUNNY     69  63  81 NE7       29.93S
MYRTLE BEACH   SUNNY     70  61  73 N12       29.90F
N MYRTLE BEACH SUNNY     71  62  73 N9        29.90S

$$

GAZ063-065-086>088-099>101-113>116-118-119-134-136>141-150-301500-
...GEORGIA...

CITY           SKY/WX    TMP DP  RH WIND       PRES   REMARKS
SAVANNAH ARPT  CLOUDY    72  65  78 N8        29.92R
HUNTER AAF     CLOUDY    70  66  88 VRB7      29.89S
FORT STEWART   CLOUDY    68  65  92 N8        29.90S
STATESBORO     NOT AVBL
SYLVANIA       PTSUNNY   73  68  85 NE7       29.94S
CLAXTON          N/A    N/A N/A N/A NE7       29.93S
THOMSON        SUNNY     71  68  91 N5        30.01S
AUGUSTA-BUSH   SUNNY     70  61  73 N7        29.95S
AUGUSTA-DANIEL SUNNY     69  62  78 N6        29.97R
SWAINSBORO     CLOUDY    72  68  88 NE6       29.95S
VIDALIA        CLOUDY    70  66  88 N6        29.94S
ALMA           CLOUDY    70  67  90 CALM      29.92R
WAYCROSS       CLOUDY    73  71  95 NE7       29.92R
JESUP          CLOUDY    72  70  94 N3        29.92R
BRUNSWICK      CLOUDY    72  68  88 N5        29.90S
SAINT SIMONS   CLOUDY    70  68  93 N8        29.89R FOG

$$

SCZ027-028-034-036>038-045-046-048>050-GAZ119-141-301500-
...LAKE AND SUPPLEMENTAL COASTAL OBSERVATIONS...

STATION/POSITION TIME  TEMP    WIND        PRES    WAVE   SWELL
                       AIR SEA DIR/SP/G            HT/PER HT/PER/DIR
                 (UTC) (F)     (DEG/KT/KT) (MB)    (FT/S) (FT/S/D)
UPR LAKE MARION  NOT AVBL
WINYAH BAY       1400   69      10/  6     1012.0S
LAKE MURRAY      1300   67     320/  2/  5 1013.9S
ACE BASIN NERRS  1400   68      10/  3     1013.0S
FORT PULASKI     1400   69     350/ 10/ 14 1012.7R
SAPELO ISLAND    NOT AVBL

$$

ANZ835-935-AMZ111-154-330-350-352-354-374-450-454-472-301500-
...C-MAN AND BUOY OBSERVATIONS...

STATION/POSITION TIME  TEMP    WIND        PRES    WAVE   SWELL
                       AIR SEA DIR/SP/G            HT/PER HT/PER/DIR
                 (UTC) (F)     (DEG/KT/KT) (MB)    (FT/S) (FT/S/D)
FOLLY BEACH CMAN 1400   69     360/  9/ 11 1012.9R
BUOY 41004       1400   75 81   20/ 17/ 19 1010.4R   5/ 6   2/ 8
BUOY 41008       1400   72 79   20/ 16/ 19 1011.5R   4/ 4   2/140/ 9
5E ST. MARYS GA  1400      79                N/A     5/ 5
FRYING PAN BUOY  NOT AVBL
BUOY 41025       1400   73     360/ 16/ 19 1011.4F   4/ 6   2/ 70/ 8
CAPE LOOKOUT NC  1400   70     360/ 10/ 12 1012.0R
BUOY 41002       1347   76 81  200/ 19/ 31 1010.5F   3/ 8   2/ 80/ 8
BUOY 41010       1400   79 85  280/ 16/ 17 1010.3R   3/ 9   2/ 90/ 9
BUOY 41012       NOT AVBL
ST AUGUSTINE FL  1400   74     320/  7/  9 1011.5R
CAPERS NEARSHORE NOT AVBL
FRIPP NEARSHORE  NOT AVBL


$$



USA.gov is the U.S. government's official web portal to all federal, state and local government web resources and services.